Location: Newark
(13.2833°S, 176.1833°W)
Time: 15:57:49
(UTC+00:00)

Hubble Space Telescope - Pass Details

Date: 25 November 2019
Orbit: 536 x 540 km, 28.5° (Epoch: 11 December)

Event Time Altitude Azimuth Distance (km) Brightness Sun altitude
Exits shadow 16:08:24 - 234° (SW) 2,448 3.9 -14.0°
Reaches altitude 10° 16:11:54 10° 197° (SSW) 1,795 3.5 -13.2°
Maximum altitude 16:12:38 10° 187° (S) 1,771 3.6 -13.1°
Drops below altitude 10° 16:13:22 10° 176° (S) 1,796 3.8 -12.9°
Sets 16:17:41 0° 134° (SE) 2,687 5.9 -12.0°
